This is the latest recevied weather packets stored in our database for station/object W0PE-1. If no packets are shown the sender has not sent any weather packets the latest 10 day(s).
| Time | Temp. | Humidity | Pressure | Rain* | Wind** | Luminosity | Snow |
|---|---|---|---|---|---|---|---|
| 1778117435 | 21.67° C | 58% | 1014.9 hPa | 0 mm | - | - | - |
| 1778116533 | 22.22° C | 57% | 1014.9 hPa | 0 mm | - | - | - |
| 1778115634 | 22.78° C | 56% | 1014.7 hPa | 0 mm | - | - | - |
| 1778114734 | 22.78° C | 55% | 1014.7 hPa | 0 mm | - | - | - |
| 1778113833 | 22.78° C | 54% | 1014.7 hPa | 0 mm | - | - | - |
| 1778112937 | 22.78° C | 54% | 1014.6 hPa | 0 mm | - | - | - |
| 1778112031 | 22.78° C | 54% | 1014.6 hPa | 0 mm | - | - | - |
| 1778111129 | 22.78° C | 55% | 1014.6 hPa | 0 mm | - | - | - |
| 1778110229 | 23.33° C | 52% | 1014.6 hPa | 0 mm | - | - | - |
| 1778109328 | 23.89° C | 51% | 1014.7 hPa | 0 mm | - | - | - |
| 1778108425 | 23.89° C | 49% | 1014.8 hPa | 0 mm | - | - | - |
| 1778107525 | 24.44° C | 50% | 1014.9 hPa | 0 mm | - | - | - |
| 1778106624 | 24.44° C | 51% | 1015 hPa | 0 mm | - | - | - |
| 1778105722 | 23.89° C | 51% | 1015 hPa | 0 mm | - | - | - |
| 1778104820 | 23.89° C | 51% | 1015.3 hPa | 0 mm | - | - | - |
| 1778103918 | 23.89° C | 51% | 1015.4 hPa | 0 mm | - | - | - |
| 1778103017 | 23.89° C | 52% | 1015.6 hPa | 0 mm | - | - | - |
| 1778102115 | 23.89° C | 52% | 1015.8 hPa | 0 mm | - | - | - |
| 1778101220 | 23.89° C | 53% | 1016 hPa | 0 mm | - | - | - |
| 1778100315 | 23.89° C | 52% | 1016.1 hPa | 0 mm | - | - | - |
| 1778099411 | 23.89° C | 50% | 1016.2 hPa | 0 mm | - | - | - |
| 1778098508 | 23.89° C | 49% | 1016.3 hPa | 0 mm | - | - | - |
| 1778097606 | 23.33° C | 50% | 1016.6 hPa | 0 mm | - | - | - |
| 1778096705 | 22.78° C | 51% | 1016.9 hPa | 0 mm | - | - | - |
| 1778095804 | 23.33° C | 51% | 1016.9 hPa | 0 mm | - | - | - |
* Rain latest hour (hover to see other rain measurements)
** Current wind speed in m/s (hover to see current wind gust speed)